Flag for U.S.A. Weather past 2 weeks in Oberlin, Ohio, U.S.A.

Now
69 °F

Partly sunny.


Feels Like: 69 °F
Forecast: 60 / 72 °F
Wind: 12 mph from West

Location: Lorain County Regional Airport

Current Time: Jun 30, 2015 at 11:30:05 AM

Latest Report: Jun 30, 2015 at 10:53 AM


Visibility: 10 mi

Pressure: 29.82 "Hg

Humidity: 73%

Dew point: 60 °F

Location of OberlinLocation

Historic Weather in Oberlin — Graph

°F

Oberlin temperature yesterday

Maximum temperature yesterday: 67 °F (at 10:53 AM)
Minimum temperature yesterday: 56 °F (at 4:53 AM)
Average temperature yesterday: 62 °F

Past Weeks' High & Low Weather Summary

 TemperatureHumidityPressure
High83 °F (Jun 15, 4:53 PM)100% (Jun 16, 3:53 AM)30.16 "Hg (Jun 16, 3:53 AM)
Low56 °F (Jun 29, 4:53 AM)48% (Jun 24, 4:53 PM)29.58 "Hg (Jun 27, 4:53 PM)
Average69 °F80%29.94 "Hg
* Reported Jun 15 9:53 AM — Jun 30 9:53 AM, Oberlin, Weather by CustomWeather, © 2015

Note: Actual official high and low records may vary slightly from our data, if they occured in-between our weather recording intervals... More about our weather records

Advertising

Oberlin weather history for previous 24 hours

 ConditionsComfort  
Time TempWeatherWind HumidityBarometerVisibility
9:53 AM
Tue, Jun 30
67 °FSunny.9 mph76%29.83 "Hg10 mi
8:53 AM65 °FScattered clouds.13 mph85%29.83 "Hg10 mi
7:53 AM63 °FOvercast.8 mph90%29.83 "Hg10 mi
6:53 AM62 °FFog.7 mph96%29.81 "Hg5 mi
5:53 AM62 °FFog.6 mph96%29.80 "Hg4 mi
4:53 AM62 °FFog.3 mph93%29.79 "Hg4 mi
3:53 AM62 °FFog.3 mph93%29.79 "Hg5 mi
2:53 AM62 °FOvercast.No wind93%29.80 "Hg7 mi
1:53 AM62 °FMostly cloudy.No wind93%29.81 "Hg9 mi
12:53 AM62 °FOvercast.3 mph93%29.82 "Hg10 mi
11:53 PM
Mon, Jun 29
62 °FOvercast.3 mph90%29.83 "Hg10 mi
10:53 PM63 °FMostly cloudy.6 mph84%29.83 "Hg10 mi
9:53 PM63 °FOvercast.9 mph81%29.83 "Hg10 mi
8:53 PM63 °FOvercast.8 mph81%29.84 "Hg10 mi
7:53 PM64 °FOvercast.9 mph84%29.85 "Hg10 mi
6:53 PM64 °FLight rain. Mostly cloudy.10 mph81%29.86 "Hg7 mi
5:53 PM66 °FLight rain. Mostly cloudy.7 mph81%29.88 "Hg10 mi
4:53 PM67 °FLight rain. Overcast.7 mph76%29.88 "Hg10 mi
3:53 PM67 °FOvercast.8 mph76%29.88 "Hg10 mi
2:53 PM66 °FLight rain. Overcast.8 mph84%29.90 "Hg10 mi
1:53 PM65 °FLight rain. More clouds than sun.7 mph87%29.91 "Hg10 mi
12:53 PM63 °FLight rain. Overcast.7 mph87%29.93 "Hg8 mi
11:53 AM66 °FOvercast.7 mph78%29.92 "Hg10 mi
Weather by CustomWeather, © 2015

See weather overviewHow to use our weather pages